EW8080 Weather Reports


Display with metric or nautical units.
time (UTC)temp
F
wind
direction
speed
MPH
gust
MPH
rain 1hr
in
rain 24hr
in
rain mn
in
humidity
%
barometer
mb
20260901071003 67 133 1.0 4.0 0.00 0.00 0.00 85 1018.1
20260901070003 67 133 1.0 3.0 0.00 0.00 0.00 85 1018.1
20260901065003 67 144 1.0 3.0 0.00 0.00 0.00 85 1018.4
20260901064003 67 171 1.0 5.0 0.00 0.00 0.00 85 1018.6
20260901063003 66 84 1.0 5.0 0.00 0.00 0.00 85 1018.5
20260901062003 66 202 1.0 4.0 0.00 0.00 0.00 85 1018.4
20260901061003 66 134 1.0 4.0 0.00 0.00 0.00 85 1018.3
20260901060003 66 154 2.0 6.0 0.00 0.00 0.00 85 1018.4
20260901055003 66 161 1.0 6.0 0.00 0.00 0.00 85 1018.6
20260901054025 66 65 2.0 5.0 0.00 0.00 0.00 85 1018.5
20260901053002 66 263 1.0 5.0 0.00 0.00 0.00 85 1018.5
20260901052002 67 69 2.0 6.0 0.00 0.00 0.00 84 1018.3
20260901051002 67 191 2.0 7.0 0.00 0.00 0.00 84 1018.6
20260901050002 67 154 3.0 7.0 0.00 0.00 0.00 84 1018.6
20260901045024 67 161 2.0 8.0 0.00 0.00 0.00 84 1018.7
20260901044002 67 58 2.0 8.0 0.00 0.00 0.00 84 1018.6
20260901043002 67 170 4.0 6.0 0.00 0.01 0.00 84 1018.8
20260901042023 67 212 4.0 6.0 0.00 0.01 0.00 83 1018.9
20260901041002 67 131 2.0 6.0 0.00 0.02 0.00 83 1018.7
20260901040002 67 76 1.0 3.0 0.00 0.17 0.00 82 1018.8
20260901035002 68 143 0.0 3.0 0.00 0.17 0.17 83 1019.0
20260901034002 68 165 1.0 3.0 0.00 0.17 0.17 83 1018.8
20260901033023 68 106 0.0 4.0 0.00 0.17 0.17 83 1018.8
20260901032002 68 146 0.0 4.0 0.00 0.17 0.17 83 1018.8
20260901031002 68 222 0.0 4.0 0.00 0.17 0.17 83 1018.7
20260901030023 68 192 1.0 3.0 0.00 0.17 0.17 83 1018.9
20260901025002 68 159 1.0 3.0 0.00 0.17 0.17 83 1018.7
20260901024002 68 193 1.0 4.0 0.00 0.17 0.17 83 1018.9
20260901023002 68 192 1.0 8.0 0.00 0.17 0.17 82 1018.9
20260901022023 68 213 0.0 8.0 0.00 0.17 0.17 81 1019.1
20260901021002 69 188 2.0 6.0 0.00 0.17 0.17 80 1019.1
20260901020003 69 145 2.0 6.0 0.00 0.17 0.17 80 1019.3
20260901015002 69 202 2.0 6.0 0.00 0.17 0.17 80 1019.2
20260901014002 69 184 4.0 6.0 0.00 0.17 0.17 80 1019.1
20260901013002 69 185 5.0 6.0 0.00 0.17 0.17 80 1019.2
20260901012002 69 196 3.0 7.0 0.00 0.17 0.17 80 1019.1
20260901011023 69 192 2.0 7.0 0.00 0.17 0.17 81 1019.0
20260901010002 69 214 5.0 7.0 0.00 0.17 0.17 81 1019.0
20260901005002 69 218 1.0 8.0 0.00 0.17 0.17 80 1019.0
20260901004002 69 171 5.0 11.0 0.00 0.17 0.17 80 1019.1
20260901003002 69 186 5.0 11.0 0.00 0.17 0.17 81 1019.1
20260901002002 70 190 3.0 9.0 0.00 0.17 0.17 80 1019.3
20260901001023 70 154 3.0 9.0 0.00 0.17 0.17 79 1019.2
20260901000002 70 185 3.0 8.0 0.00 0.17 0.17 78 1019.1
20260831235002 70 167 3.0 11.0 0.00 0.17 0.17 77 1019.3
20260831234002 70 171 5.0 11.0 0.00 0.17 0.17 77 1019.1
20260831233002 70 181 7.0 13.0 0.00 0.17 0.17 76 1019.1
20260831232023 70 169 6.0 13.0 0.00 0.17 0.17 76 1019.0
20260831231002 70 173 3.0 10.0 0.00 0.17 0.17 75 1019.1
20260831230002 71 180 6.0 13.0 0.00 0.17 0.17 75 1019.2
20260831225023 71 184 5.0 13.0 0.00 0.17 0.17 75 1019.1
20260831224023 71 170 3.0 12.0 0.00 0.17 0.17 75 1019.3
20260831223003 72 176 5.0 12.0 0.00 0.17 0.17 74 1019.2
20260831222023 72 177 7.0 12.0 0.00 0.17 0.17 74 1019.4
20260831221002 72 192 4.0 10.0 0.00 0.17 0.17 75 1019.2
20260831220002 73 182 7.0 10.0 0.00 0.17 0.17 74 1019.2
20260831215003 73 209 5.0 10.0 0.00 0.17 0.17 73 1019.2
20260831214002 74 197 5.0 10.0 0.00 0.17 0.17 71 1019.4
20260831213023 74 162 4.0 11.0 0.00 0.17 0.17 66 1019.2
20260831212003 74 187 2.0 18.0 0.00 0.17 0.17 64 1019.0
20260831211003 75 178 6.0 18.0 0.00 0.17 0.17 62 1019.2
20260831210024 76 175 6.0 14.0 0.00 0.17 0.17 62 1019.0
20260831205003 76 190 6.0 13.0 0.00 0.17 0.17 62 1019.1
20260831204003 77 197 5.0 16.0 0.00 0.17 0.17 61 1019.3
20260831203003 76 177 11.0 16.0 0.00 0.17 0.17 59 1019.1
20260831202003 77 183 6.0 12.0 0.00 0.17 0.17 57 1019.2
20260831201003 78 188 4.0 13.0 0.00 0.17 0.17 57 1019.0
20260831200003 77 194 5.0 13.0 0.00 0.17 0.17 55 1019.4
20260831195003 77 181 8.0 13.0 0.00 0.17 0.17 57 1019.3
20260831194024 77 174 7.0 10.0 0.00 0.17 0.17 58 1019.4
20260831193003 77 196 2.0 10.0 0.00 0.17 0.17 59 1019.3
20260831192003 78 191 4.0 9.0 0.00 0.17 0.17 57 1019.6
20260831191003 78 124 3.0 9.0 0.00 0.17 0.17 59 1019.7
20260831190024 78 154 4.0 10.0 0.00 0.17 0.17 60 1019.8
20260831185003 77 191 5.0 12.0 0.00 0.17 0.17 58 1020.2
20260831184003 77 168 4.0 12.0 0.00 0.17 0.17 58 1019.8
20260831183003 78 186 6.0 9.0 0.00 0.17 0.17 59 1020.0
20260831182004 77 142 4.0 8.0 0.00 0.17 0.17 60 1020.1
20260831181003 77 181 3.0 8.0 0.00 0.17 0.17 61 1020.1
20260831180003 77 122 3.0 10.0 0.00 0.17 0.17 58 1020.1
20260831175003 78 153 5.0 15.0 0.00 0.17 0.17 58 1020.2
20260831174003 78 196 8.0 15.0 0.00 0.17 0.17 58 1020.0
20260831173003 79 180 10.0 15.0 0.00 0.17 0.17 57 1020.3
20260831172003 79 176 5.0 10.0 0.00 0.17 0.17 58 1020.0
20260831171003 80 179 3.0 8.0 0.00 0.17 0.17 57 1020.3
20260831170003 80 23 2.0 10.0 0.00 0.17 0.17 57 1020.5
20260831165024 80 35 4.0 10.0 0.00 0.17 0.17 58 1020.4
20260831164003 80 167 5.0 10.0 0.00 0.17 0.17 56 1020.4
20260831163003 80 145 4.0 8.0 0.00 0.17 0.17 56 1020.5
20260831162003 80 41 4.0 8.0 0.00 0.17 0.17 53 1020.3
20260831161003 80 118 5.0 8.0 0.00 0.17 0.17 59 1020.5
20260831160024 80 44 2.0 8.0 0.00 0.17 0.17 58 1020.7
20260831155003 80 60 2.0 6.0 0.00 0.17 0.17 59 1020.8
20260831154024 80 117 2.0 8.0 0.00 0.17 0.17 60 1020.8
20260831153004 80 338 2.0 8.0 0.00 0.17 0.17 59 1020.9
20260831152003 80 39 3.0 6.0 0.00 0.17 0.17 61 1020.8
20260831151003 80 104 3.0 6.0 0.00 0.17 0.17 63 1021.0
20260831150003 79 120 4.0 8.0 0.00 0.17 0.17 64 1020.8
20260831145003 79 136 4.0 8.0 0.00 0.17 0.17 67 1020.8
20260831144003 77 71 4.0 8.0 0.00 0.17 0.17 68 1020.8
20260831143003 77 346 3.0 7.0 0.00 0.17 0.17 68 1020.8
20260831142003 77 12 4.0 8.0 0.00 0.17 0.17 66 1020.8
20260831141003 76 348 4.0 8.0 0.00 0.17 0.17 72 1020.7
20260831140002 76 59 4.0 8.0 0.00 0.17 0.17 75 1020.6
20260831135002 75 356 4.0 9.0 0.00 0.17 0.17 70 1020.4
20260831134003 75 33 6.0 9.0 0.00 0.17 0.17 69 1020.2
20260831133003 75 314 4.0 7.0 0.00 0.17 0.17 75 1020.3
20260831132003 75 348 3.0 6.0 0.00 0.17 0.17 79 1020.3
20260831131024 74 115 4.0 7.0 0.00 0.17 0.17 78 1020.3
20260831130003 73 32 3.0 7.0 0.00 0.17 0.17 85 1020.4
20260831125002 70 74 3.0 7.0 0.00 0.17 0.17 89 1020.4
20260831124024 69 47 2.0 7.0 0.00 0.17 0.17 91 1020.2
20260831123002 68 10 4.0 7.0 0.00 0.17 0.17 94 1020.1
20260831122002 67 295 4.0 7.0 0.00 0.17 0.17 95 1019.8
20260831121002 67 64 3.0 5.0 0.00 0.17 0.17 95 1020.0
20260831120002 66 80 1.0 3.0 0.00 0.17 0.17 95 1020.2
20260831115002 66 61 2.0 3.0 0.00 0.17 0.17 95 1019.8
20260831114003 66 145 0.0 3.0 0.00 0.17 0.17 95 1020.0
20260831113002 66 159 2.0 3.0 0.00 0.17 0.17 95 1019.6
20260831112002 66 143 0.0 3.0 0.00 0.17 0.17 95 1019.7
20260831111002 66 214 1.0 3.0 0.00 0.17 0.17 96 1019.5
20260831110003 65 61 0.0 3.0 0.00 0.17 0.17 96 1019.4
20260831105002 65 77 0.0 3.0 0.00 0.17 0.17 96 1019.4
20260831104023 65 4 2.0 3.0 0.00 0.17 0.17 95 1019.4
20260831103002 65 6 0.0 3.0 0.00 0.17 0.17 95 1019.2
20260831102002 65 68 0.0 3.0 0.00 0.17 0.17 95 1019.0
20260831101003 65 333 1.0 3.0 0.00 0.17 0.17 95 1018.9
20260831100002 65 47 0.0 3.0 0.00 0.17 0.17 95 1018.8
20260831095002 66 8 1.0 4.0 0.00 0.17 0.17 96 1018.6
20260831094002 65 48 1.0 4.0 0.00 0.17 0.17 96 1018.4
20260831093024 66 48 0.0 5.0 0.00 0.17 0.17 96 1018.4
20260831092003 66 47 2.0 6.0 0.00 0.17 0.17 96 1018.5
20260831091003 66 352 3.0 7.0 0.00 0.17 0.17 96 1018.6
20260831090003 66 345 4.0 8.0 0.00 0.17 0.17 97 1018.4
20260831085002 66 337 4.0 8.0 0.00 0.17 0.17 96 1018.4
20260831084023 66 340 6.0 6.0 0.00 0.17 0.17 96 1018.3
20260831083002 66 341 6.0 6.0 0.00 0.17 0.17 96 1018.2
20260831082002 67 7 3.0 6.0 0.00 0.17 0.17 96 1018.1
20260831081003 67 350 5.0 8.0 0.00 0.17 0.17 95 1018.1
20260831080002 67 6 2.0 8.0 0.00 0.17 0.17 95 1017.8
20260831075003 67 347 6.0 8.0 0.00 0.17 0.17 95 1017.7
20260831074024 68 299 2.0 7.0 0.00 0.17 0.17 95 1017.6
20260831073003 68 350 5.0 7.0 0.00 0.17 0.17 95 1017.5
20260831072003 68 323 4.0 7.0 0.00 0.17 0.17 95 1017.3